Вернуться в каталог

COSMOS 2575

АктивенВоенныеSSO
NORAD 58929·PAYLOAD·🇷🇺 Russia

Запущен Feb 9, 2024 с Plesetsk Cosmodrome

Loading…

Ближайшие Пролёты (ближайшие 24 часа)

TLE

СвежийSource: Space-Track

Эпоха: Sep 14, 2026, 15:00 UTC

1 58929U 24026A   26257.62559328  .00021353  00000-0  14239-3 0  9995
2 58929  96.6003 137.4235 0002616  97.1369 263.0196 15.75377571149711

Отслеживайте COSMOS 2575 в реальном времени с AllMySat

Download on the App Store